QPF
0.04 0.05 0.06 0.06 0.06 0.06 0.08 0.09 0.11 0.11 0.10 0.07 0.06 0.04 0.03 0.03 0.03 0.02 0.01 0.01 0.02 0.02 0.01 0.01 0.01 0.01 0.01 0.01 0.01 0.03 0.05 0.05 0.04 0.04 0.02 0.02 0.02 0.03
0.04 0.05 0.06 0.06 0.07 0.08 0.09 0.11 0.13 0.10 0.07 0.05 0.04 0.03 0.02 0.02 0.02 0.02 0.02 0.02 0.01 0.01 0.01 0.01 0.01 0.01 0.01 0.01 0.01 0.01 0.03 0.04 0.04 0.03 0.02 0.02 0.02 0.02
0.04 0.04 0.04 0.06 0.07 0.08 0.07 0.09 0.10 0.10 0.09 0.06 0.04 0.03 0.03 0.02 0.03 0.02 0.02 0.02 0.01 0.01 0.01 0.01 0.01 0.01 0.01 0.01 0.01 0.01 0.02 0.03 0.03 0.03 0.01 0.01 0.01 0.01
0.03 0.03 0.03 0.05 0.05 0.05 0.05 0.06 0.07 0.08 0.07 0.05 0.05 0.05 0.04 0.04 0.04 0.04 0.03 0.02 0.02 0.02 0.01 0.01 0.02 0.01 0.01 0.01 0.01 0.02 0.02 0.02 0.02 0.02 0.01 0.00 0.01 0.00
0.03 0.03 0.03 0.03 0.02 0.02 0.03 0.04 0.05 0.06 0.06 0.04 0.03 0.05 0.04 0.03 0.04 0.04 0.05 0.06 0.03 0.02 0.02 0.02 0.02 0.02 0.02 0.02 0.01 0.01 0.02 0.02 0.01 0.01 0.00 0.00 0.00 0.00
0.02 0.02 0.02 0.02 0.02 0.02 0.02 0.04 0.04 0.05 0.05 0.05 0.04 0.04 0.03 0.03 0.03 0.04 0.04 0.05 0.05 0.03 0.03 0.03 0.02 0.02 0.03 0.02 0.02 0.01 0.02 0.01 0.01 0.01 0.00 0.00 0.00 0.00
0.01 0.01 0.01 0.01 0.01 0.01 0.02 0.03 0.03 0.04 0.04 0.04 0.04 0.03 0.03 0.03 0.02 0.02 0.02 0.04 0.04 0.03 0.04 0.04 0.04 0.04 0.03 0.03 0.03 0.02 0.02 0.02 0.01 0.01 0.01 0.00 0.00 0.00
0.01 0.01 0.01 0.01 0.00 0.00 0.00 0.01 0.02 0.03 0.03 0.03 0.03 0.03 0.03 0.03 0.03 0.02 0.02 0.03 0.03 0.03 0.04 0.04 0.04 0.05 0.05 0.04 0.04 0.03 0.03 0.02 0.01 0.01 0.01 0.02 0.01 0.01
0.01 0.01 0.01 0.01 0.01 0.01 0.01 0.00 0.01 0.01 0.02 0.02 0.02 0.02 0.03 0.03 0.02 0.02 0.02 0.03 0.02 0.02 0.03 0.03 0.03 0.04 0.05 0.04 0.04 0.03 0.03 0.02 0.01 0.01 0.01 0.01 0.02 0.02
0.00 0.00 0.01 0.01 0.01 0.01 0.01 0.00 0.00 0.00 0.00 0.01 0.01 0.02 0.02 0.03 0.02 0.02 0.02 0.02 0.01 0.02 0.02 0.03 0.03 0.03 0.04 0.04 0.04 0.03 0.02 0.02 0.02 0.01 0.00 0.00 0.01 0.01
0.00 0.00 0.01 0.01 0.01 0.01 0.01 0.01 0.01 0.01 0.01 0.01 0.01 0.01 0.01 0.01 0.02 0.02 0.02 0.01 0.01 0.02 0.02 0.02 0.03 0.03 0.03 0.04 0.05 0.04 0.03 0.02 0.01 0.01 0.01 0.00 0.00 0.01
0.01 0.01 0.01 0.01 0.01 0.01 0.01 0.01 0.01 0.02 0.02 0.01 0.01 0.01 0.01 0.01 0.01 0.02 0.02 0.02 0.02 0.03 0.03 0.03 0.04 0.04 0.05 0.05 0.05 0.05 0.03 0.02 0.02 0.02 0.02 0.01 0.01 0.00
0.00 0.01 0.01 0.01 0.01 0.01 0.01 0.01 0.01 0.01 0.02 0.02 0.02 0.02 0.02 0.02 0.02 0.02 0.03 0.03 0.03 0.02 0.02 0.03 0.04 0.05 0.05 0.05 0.04 0.04 0.04 0.04 0.03 0.03 0.02 0.02 0.01 0.01
0.00 0.00 0.00 0.01 0.01 0.01 0.01 0.01 0.01 0.01 0.01 0.02 0.02 0.02 0.02 0.01 0.01 0.02 0.02 0.02 0.02 0.02 0.01 0.02 0.03 0.03 0.03 0.03 0.03 0.04 0.04 0.04 0.03 0.02 0.01 0.01 0.01 0.01
0.00 0.00 0.00 0.00 0.00 0.00 0.01 0.01 0.01 0.01 0.01 0.02 0.02 0.03 0.02 0.02 0.02 0.02 0.02 0.03 0.02 0.01 0.01 0.02 0.03 0.03 0.03 0.03 0.03 0.03 0.04 0.04 0.04 0.04 0.03 0.02 0.01 0.01
0.00 0.00 0.00 0.00 0.00 0.00 0.00 0.00 0.00 0.01 0.01 0.02 0.02 0.02 0.02 0.01 0.01 0.02 0.02 0.02 0.02 0.02 0.02 0.02 0.03 0.04 0.04 0.05 0.05 0.05 0.05 0.05 0.04 0.04 0.04 0.04 0.03 0.02
0.01 0.00 0.00 0.01 0.01 0.01 0.01 0.01 0.01 0.01 0.02 0.02 0.02 0.02 0.01 0.02 0.02 0.02 0.02 0.02 0.02 0.02 0.02 0.03 0.04 0.04 0.05 0.07 0.08 0.07 0.06 0.06 0.05 0.05 0.05 0.06 0.05 0.05
0.01 0.01 0.01 0.01 0.01 0.01 0.01 0.01 0.02 0.02 0.02 0.02 0.01 0.01 0.01 0.01 0.01 0.01 0.02 0.02 0.02 0.02 0.03 0.03 0.05 0.07 0.08 0.06 0.06 0.07 0.08 0.07 0.06 0.06 0.08 0.08 0.07 0.07
0.01 0.01 0.01 0.01 0.01 0.01 0.01 0.01 0.01 0.01 0.01 0.01 0.01 0.01 0.01 0.01 0.01 0.01 0.01 0.01 0.02 0.03 0.02 0.02 0.04 0.07 0.08 0.07 0.05 0.04 0.09 0.11 0.09 0.08 0.08 0.07 0.08 0.07
0.00 0.01 0.01 0.01 0.01 0.02 0.02 0.02 0.02 0.02 0.01 0.01 0.01 0.01 0.02 0.02 0.02 0.02 0.02 0.03 0.03 0.04 0.04 0.02 0.04 0.07 0.10 0.10 0.06 0.04 0.06 0.09 0.09 0.10 0.08 0.06 0.06 0.06
0.01 0.01 0.01 0.01 0.02 0.03 0.03 0.03 0.03 0.02 0.02 0.02 0.02 0.02 0.02 0.03 0.03 0.03 0.03 0.04 0.05 0.05 0.06 0.05 0.06 0.07 0.08 0.08 0.07 0.06 0.06 0.08 0.07 0.07 0.06 0.05 0.07 0.07
0.02 0.02 0.02 0.03 0.03 0.03 0.04 0.03 0.03 0.03 0.03 0.04 0.03 0.03 0.04 0.04 0.04 0.04 0.04 0.05 0.06 0.06 0.06 0.06 0.06 0.06 0.05 0.05 0.05 0.05 0.06 0.06 0.06 0.06 0.06 0.05 0.05 0.06
0.03 0.03 0.03 0.04 0.04 0.04 0.04 0.04 0.04 0.05 0.05 0.05 0.04 0.04 0.04 0.03 0.04 0.05 0.06 0.06 0.06 0.06 0.06 0.07 0.08 0.08 0.08 0.07 0.07 0.06 0.05 0.06 0.07 0.06 0.05 0.04 0.04 0.04
MSLP
1013.69 1013.65 1013.68 1013.79 1013.97 1014.22 1014.50 1014.80 1015.11 1015.42 1015.72 1016.00 1016.27 1016.53 1016.78 1017.01 1017.22 1017.39 1017.54 1017.64 1017.68 1017.67 1017.59 1017.43 1017.19 1016.84 1016.41 1015.88 1015.29 1014.67 1014.05 1013.49 1013.04 1012.73 1012.59 1012.66 1012.92 1013.35
1013.72 1013.68 1013.71 1013.79 1013.93 1014.11 1014.34 1014.59 1014.86 1015.14 1015.43 1015.73 1016.04 1016.36 1016.66 1016.95 1017.21 1017.43 1017.60 1017.72 1017.79 1017.80 1017.75 1017.64 1017.46 1017.21 1016.88 1016.48 1016.02 1015.51 1014.99 1014.51 1014.10 1013.80 1013.65 1013.68 1013.87 1014.24
1013.74 1013.73 1013.75 1013.82 1013.92 1014.05 1014.21 1014.40 1014.62 1014.87 1015.15 1015.46 1015.80 1016.16 1016.51 1016.85 1017.16 1017.41 1017.61 1017.75 1017.83 1017.86 1017.85 1017.79 1017.70 1017.55 1017.36 1017.10 1016.79 1016.44 1016.06 1015.68 1015.35 1015.10 1014.95 1014.95 1015.11 1015.41
1013.74 1013.75 1013.79 1013.83 1013.90 1013.99 1014.10 1014.23 1014.40 1014.61 1014.88 1015.19 1015.55 1015.95 1016.34 1016.72 1017.06 1017.35 1017.56 1017.72 1017.82 1017.87 1017.90 1017.90 1017.89 1017.86 1017.80 1017.70 1017.56 1017.36 1017.13 1016.88 1016.64 1016.45 1016.33 1016.33 1016.45 1016.71
1013.70 1013.74 1013.78 1013.82 1013.87 1013.92 1013.99 1014.08 1014.21 1014.39 1014.63 1014.94 1015.31 1015.72 1016.14 1016.55 1016.91 1017.21 1017.45 1017.62 1017.74 1017.82 1017.89 1017.96 1018.04 1018.12 1018.19 1018.24 1018.25 1018.21 1018.12 1017.99 1017.85 1017.73 1017.65 1017.66 1017.78 1018.01
1013.64 1013.69 1013.73 1013.78 1013.82 1013.86 1013.90 1013.96 1014.05 1014.20 1014.42 1014.71 1015.07 1015.48 1015.90 1016.31 1016.68 1017.00 1017.25 1017.44 1017.58 1017.70 1017.82 1017.96 1018.12 1018.31 1018.50 1018.68 1018.82 1018.92 1018.95 1018.94 1018.90 1018.85 1018.82 1018.86 1018.99 1019.21
1013.57 1013.62 1013.68 1013.73 1013.78 1013.81 1013.83 1013.87 1013.94 1014.06 1014.25 1014.51 1014.84 1015.22 1015.62 1016.01 1016.38 1016.69 1016.95 1017.16 1017.34 1017.51 1017.69 1017.90 1018.14 1018.42 1018.72 1019.01 1019.26 1019.47 1019.61 1019.70 1019.74 1019.76 1019.79 1019.87 1020.01 1020.25
1013.51 1013.56 1013.63 1013.69 1013.75 1013.79 1013.81 1013.84 1013.89 1013.97 1014.12 1014.33 1014.61 1014.93 1015.29 1015.65 1015.99 1016.29 1016.56 1016.79 1017.00 1017.22 1017.46 1017.75 1018.08 1018.44 1018.83 1019.21 1019.56 1019.85 1020.09 1020.25 1020.37 1020.46 1020.55 1020.67 1020.85 1021.10
1013.47 1013.52 1013.60 1013.68 1013.75 1013.80 1013.83 1013.85 1013.87 1013.92 1014.02 1014.17 1014.38 1014.63 1014.92 1015.23 1015.52 1015.81 1016.07 1016.32 1016.57 1016.85 1017.16 1017.51 1017.92 1018.36 1018.83 1019.28 1019.71 1020.07 1020.38 1020.62 1020.81 1020.97 1021.12 1021.30 1021.52 1021.79
1013.46 1013.52 1013.61 1013.71 1013.79 1013.85 1013.88 1013.89 1013.89 1013.90 1013.93 1014.02 1014.14 1014.32 1014.53 1014.76 1015.01 1015.26 1015.51 1015.78 1016.07 1016.39 1016.76 1017.19 1017.66 1018.17 1018.70 1019.22 1019.70 1020.14 1020.51 1020.82 1021.08 1021.31 1021.53 1021.76 1022.03 1022.33
1013.49 1013.56 1013.65 1013.75 1013.84 1013.90 1013.93 1013.92 1013.90 1013.86 1013.85 1013.86 1013.91 1014.00 1014.13 1014.29 1014.48 1014.70 1014.94 1015.21 1015.52 1015.88 1016.31 1016.78 1017.31 1017.87 1018.45 1019.02 1019.56 1020.05 1020.48 1020.86 1021.19 1021.50 1021.79 1022.08 1022.40 1022.73
1013.55 1013.61 1013.71 1013.80 1013.89 1013.94 1013.95 1013.92 1013.87 1013.81 1013.74 1013.70 1013.68 1013.70 1013.76 1013.86 1014.00 1014.17 1014.39 1014.66 1014.98 1015.36 1015.81 1016.32 1016.88 1017.47 1018.09 1018.69 1019.27 1019.80 1020.30 1020.74 1021.15 1021.53 1021.89 1022.25 1022.62 1022.99
1013.63 1013.68 1013.76 1013.84 1013.90 1013.93 1013.92 1013.87 1013.79 1013.70 1013.61 1013.53 1013.47 1013.44 1013.45 1013.50 1013.59 1013.73 1013.93 1014.18 1014.49 1014.87 1015.32 1015.83 1016.40 1017.00 1017.61 1018.23 1018.83 1019.41 1019.95 1020.45 1020.93 1021.39 1021.83 1022.25 1022.67 1023.07
1013.71 1013.75 1013.79 1013.83 1013.86 1013.85 1013.81 1013.75 1013.66 1013.55 1013.45 1013.36 1013.28 1013.24 1013.22 1013.24 1013.31 1013.42 1013.58 1013.80 1014.09 1014.44 1014.86 1015.34 1015.88 1016.46 1017.06 1017.67 1018.27 1018.86 1019.44 1019.99 1020.53 1021.05 1021.56 1022.05 1022.51 1022.95
1013.79 1013.79 1013.79 1013.78 1013.75 1013.71 1013.64 1013.55 1013.46 1013.37 1013.28 1013.20 1013.14 1013.10 1013.09 1013.10 1013.15 1013.23 1013.36 1013.55 1013.79 1014.09 1014.45 1014.88 1015.36 1015.88 1016.43 1017.00 1017.59 1018.18 1018.77 1019.36 1019.95 1020.52 1021.09 1021.63 1022.14 1022.60
1013.84 1013.80 1013.75 1013.68 1013.59 1013.50 1013.41 1013.32 1013.23 1013.16 1013.10 1013.06 1013.04 1013.03 1013.04 1013.06 1013.10 1013.17 1013.26 1013.40 1013.58 1013.82 1014.10 1014.45 1014.84 1015.28 1015.76 1016.28 1016.82 1017.39 1017.97 1018.58 1019.19 1019.81 1020.42 1021.00 1021.55 1022.05
1013.83 1013.75 1013.64 1013.52 1013.39 1013.26 1013.15 1013.05 1012.99 1012.95 1012.94 1012.95 1012.98 1013.01 1013.05 1013.09 1013.13 1013.18 1013.24 1013.32 1013.44 1013.59 1013.79 1014.04 1014.34 1014.68 1015.07 1015.51 1015.99 1016.52 1017.08 1017.67 1018.30 1018.94 1019.58 1020.20 1020.79 1021.32
1013.73 1013.62 1013.47 1013.30 1013.14 1012.99 1012.87 1012.79 1012.76 1012.77 1012.80 1012.87 1012.94 1013.02 1013.08 1013.14 1013.18 1013.20 1013.23 1013.26 1013.31 1013.38 1013.49 1013.64 1013.84 1014.08 1014.38 1014.73 1015.14 1015.61 1016.13 1016.70 1017.32 1017.97 1018.63 1019.29 1019.91 1020.49
1013.51 1013.38 1013.22 1013.03 1012.86 1012.71 1012.61 1012.56 1012.56 1012.61 1012.69 1012.80 1012.91 1013.01 1013.10 1013.15 1013.18 1013.19 1013.17 1013.15 1013.13 1013.13 1013.16 1013.22 1013.33 1013.48 1013.69 1013.96 1014.30 1014.70 1015.18 1015.72 1016.32 1016.97 1017.64 1018.33 1018.99 1019.62
1013.16 1013.03 1012.88 1012.71 1012.55 1012.44 1012.37 1012.35 1012.39 1012.48 1012.60 1012.74 1012.87 1012.98 1013.06 1013.10 1013.10 1013.07 1013.02 1012.95 1012.88 1012.82 1012.78 1012.77 1012.80 1012.88 1013.01 1013.21 1013.48 1013.83 1014.25 1014.76 1015.34 1015.99 1016.67 1017.38 1018.09 1018.77
1012.67 1012.57 1012.45 1012.33 1012.23 1012.16 1012.14 1012.18 1012.27 1012.39 1012.53 1012.67 1012.80 1012.90 1012.95 1012.96 1012.93 1012.85 1012.75 1012.64 1012.52 1012.41 1012.32 1012.26 1012.24 1012.27 1012.35 1012.49 1012.71 1013.01 1013.39 1013.87 1014.43 1015.07 1015.77 1016.50 1017.25 1017.99
1012.04 1012.00 1011.94 1011.89 1011.87 1011.87 1011.93 1012.03 1012.16 1012.31 1012.46 1012.60 1012.71 1012.77 1012.78 1012.74 1012.65 1012.53 1012.39 1012.23 1012.08 1011.94 1011.82 1011.73 1011.68 1011.67 1011.71 1011.82 1012.00 1012.27 1012.62 1013.07 1013.62 1014.25 1014.95 1015.70 1016.49 1017.28
1011.30 1011.33 1011.36 1011.40 1011.47 1011.57 1011.71 1011.88 1012.06 1012.23 1012.39 1012.52 1012.59 1012.61 1012.56 1012.47 1012.33 1012.16 1011.97 1011.78 1011.60 1011.43 1011.30 1011.20 1011.13 1011.11 1011.14 1011.23 1011.39 1011.63 1011.97 1012.39 1012.92 1013.54 1014.24 1015.01 1015.81 1016.63
Thickness
5757 5754 5751 5750 5749 5746 5741 5736 5726 5716 5712 5713 5712 5711 5708 5705 5701 5698 5695 5693 5691 5689 5688 5687 5685 5684 5683 5683 5682 5681 5679 5678 5677 5676 5675 5673 5671 5670
5754 5751 5748 5747 5745 5743 5739 5735 5731 5722 5713 5712 5710 5709 5706 5703 5698 5695 5692 5689 5687 5685 5683 5681 5680 5679 5677 5676 5675 5674 5673 5672 5670 5669 5667 5665 5664 5662
5752 5749 5745 5744 5741 5739 5736 5733 5728 5723 5713 5709 5708 5705 5702 5699 5694 5692 5689 5686 5683 5681 5679 5677 5675 5673 5672 5671 5669 5668 5667 5665 5663 5662 5660 5658 5656 5653
5748 5745 5742 5741 5737 5735 5732 5729 5725 5722 5714 5706 5703 5701 5698 5696 5692 5689 5687 5684 5680 5677 5675 5673 5670 5668 5667 5665 5663 5662 5660 5658 5657 5655 5653 5651 5648 5646
5745 5742 5739 5736 5732 5730 5728 5725 5722 5719 5713 5706 5701 5699 5695 5693 5689 5687 5685 5681 5678 5674 5671 5668 5666 5664 5662 5660 5658 5656 5654 5652 5650 5648 5646 5643 5641 5638
5744 5740 5736 5733 5729 5726 5724 5720 5718 5713 5709 5704 5699 5695 5691 5689 5686 5682 5679 5678 5676 5673 5669 5666 5663 5660 5658 5655 5653 5650 5648 5646 5643 5641 5639 5636 5633 5630
5740 5737 5733 5729 5726 5722 5720 5716 5713 5709 5705 5701 5696 5691 5687 5684 5681 5679 5676 5674 5672 5671 5666 5663 5660 5656 5654 5651 5648 5646 5643 5641 5638 5635 5632 5629 5626 5623
5736 5733 5730 5726 5721 5718 5715 5712 5709 5706 5701 5696 5693 5688 5685 5682 5679 5677 5673 5669 5665 5667 5663 5661 5658 5654 5651 5648 5645 5643 5639 5636 5633 5630 5627 5624 5620 5617
5733 5729 5727 5724 5719 5714 5711 5708 5705 5702 5699 5694 5689 5686 5683 5680 5676 5673 5670 5666 5663 5664 5661 5657 5656 5653 5650 5648 5644 5640 5636 5632 5628 5625 5621 5618 5614 5611
5730 5726 5722 5718 5715 5710 5708 5704 5701 5698 5695 5692 5689 5685 5682 5678 5674 5671 5668 5665 5663 5661 5658 5652 5652 5650 5650 5645 5641 5637 5633 5629 5624 5620 5616 5612 5609 5605
5728 5723 5719 5714 5710 5706 5703 5699 5696 5692 5690 5688 5685 5681 5678 5673 5670 5666 5663 5659 5656 5654 5654 5650 5648 5646 5644 5640 5637 5633 5629 5625 5620 5616 5611 5607 5603 5599
5724 5720 5715 5710 5706 5702 5699 5695 5690 5688 5686 5682 5679 5676 5673 5669 5666 5662 5659 5655 5651 5649 5649 5646 5643 5640 5636 5636 5633 5628 5623 5619 5615 5611 5607 5602 5598 5592
5719 5716 5712 5706 5702 5698 5694 5691 5687 5683 5680 5677 5674 5671 5669 5666 5662 5659 5656 5652 5648 5645 5646 5642 5638 5635 5631 5628 5626 5623 5620 5616 5611 5607 5602 5598 5594 5588
5715 5712 5709 5702 5697 5693 5689 5687 5683 5679 5675 5673 5669 5667 5665 5662 5660 5657 5654 5650 5647 5644 5642 5638 5633 5629 5625 5621 5619 5618 5615 5612 5608 5604 5599 5595 5590 5585
5710 5707 5702 5697 5692 5688 5685 5681 5677 5674 5671 5668 5665 5663 5662 5660 5657 5653 5650 5647 5643 5640 5637 5633 5629 5625 5621 5617 5614 5612 5609 5607 5604 5599 5596 5591 5587 5582
5702 5699 5695 5691 5687 5684 5681 5677 5673 5671 5668 5665 5662 5661 5660 5657 5653 5649 5645 5642 5637 5635 5633 5629 5625 5621 5616 5613 5610 5607 5605 5601 5599 5596 5592 5588 5584 5579
5696 5692 5689 5685 5682 5680 5678 5675 5671 5667 5663 5661 5658 5656 5654 5652 5649 5646 5642 5638 5633 5629 5626 5624 5621 5617 5614 5609 5604 5602 5599 5596 5594 5590 5586 5582 5579 5576
5690 5688 5685 5683 5680 5677 5674 5671 5668 5665 5661 5658 5655 5652 5650 5647 5643 5641 5637 5632 5628 5625 5622 5618 5614 5609 5605 5604 5601 5597 5593 5590 5587 5583 5580 5576 5573 5570
5685 5684 5682 5679 5676 5674 5671 5668 5665 5662 5659 5655 5652 5649 5646 5643 5639 5634 5631 5627 5623 5620 5616 5612 5608 5602 5596 5593 5594 5592 5587 5584 5579 5576 5573 5570 5567 5564
5683 5680 5678 5675 5672 5669 5667 5663 5660 5658 5654 5651 5647 5644 5640 5637 5633 5630 5626 5622 5618 5615 5610 5607 5602 5598 5593 5589 5587 5585 5583 5578 5573 5569 5566 5563 5560 5556
5679 5676 5673 5670 5667 5665 5662 5658 5655 5651 5648 5645 5641 5637 5634 5630 5627 5624 5621 5616 5612 5608 5604 5600 5598 5594 5590 5585 5581 5579 5576 5572 5568 5563 5559 5555 5551 5548
5674 5670 5667 5664 5661 5658 5655 5652 5649 5645 5641 5638 5634 5631 5628 5625 5621 5618 5615 5611 5606 5603 5599 5595 5591 5587 5582 5578 5574 5571 5568 5564 5560 5557 5553 5550 5545 5542
5668 5664 5661 5658 5655 5652 5649 5645 5641 5638 5634 5631 5627 5624 5621 5618 5615 5612 5608 5604 5600 5596 5592 5588 5583 5579 5575 5571 5567 5564 5561 5557 5553 5549 5546 5543 5540 5537